Year,Month,Day,Hour,Minute,Value (Times are PST for temperature in C)
2015,02,09,01,31,9.90
2015,02,09,01,32,9.90
2015,02,09,01,33,9.90
2015,02,09,01,34,9.90
2015,02,09,01,35,9.90
2015,02,09,01,36,9.90
2015,02,09,01,37,9.90
2015,02,09,01,38,9.90
2015,02,09,01,39,9.90
2015,02,09,01,40,9.90
2015,02,09,01,41,9.90
2015,02,09,01,42,9.90
2015,02,09,01,43,9.90
2015,02,09,01,44,9.90
2015,02,09,01,45,9.90
2015,02,09,01,46,9.90
2015,02,09,01,47,9.90
2015,02,09,01,48,9.90
2015,02,09,01,49,9.90
2015,02,09,01,50,9.90
2015,02,09,01,51,9.90
2015,02,09,01,52,9.90
2015,02,09,01,53,9.90
2015,02,09,01,54,9.90
2015,02,09,01,55,9.90
2015,02,09,01,56,9.90
2015,02,09,01,57,9.90
2015,02,09,01,58,9.90
2015,02,09,01,59,9.90
2015,02,09,02,00,9.90
2015,02,09,02,01,10.00
2015,02,09,02,02,10.00
2015,02,09,02,03,10.00
2015,02,09,02,04,10.00
2015,02,09,02,05,10.00
2015,02,09,02,06,10.00
2015,02,09,02,07,10.00
2015,02,09,02,08,10.00
2015,02,09,02,09,10.00
2015,02,09,02,10,10.00
2015,02,09,02,11,10.00
2015,02,09,02,12,10.00
2015,02,09,02,13,10.00
2015,02,09,02,14,10.00
2015,02,09,02,15,10.00
2015,02,09,02,16,10.00
2015,02,09,02,17,10.00
2015,02,09,02,18,10.00
2015,02,09,02,19,10.00
2015,02,09,02,20,10.00
2015,02,09,02,21,10.00
2015,02,09,02,22,10.00
2015,02,09,02,23,10.00
2015,02,09,02,24,10.00
2015,02,09,02,25,10.00
2015,02,09,02,26,10.00
2015,02,09,02,27,10.00
2015,02,09,02,28,10.00
2015,02,09,02,29,10.00
2015,02,09,02,30,10.00
2015,02,09,02,31,10.00
2015,02,09,02,32,10.00
2015,02,09,02,33,10.00
2015,02,09,02,34,10.00
2015,02,09,02,35,10.00
2015,02,09,02,36,10.00
2015,02,09,02,37,10.00
2015,02,09,02,38,10.00
2015,02,09,02,39,10.00
2015,02,09,02,40,10.00
2015,02,09,02,41,10.00
2015,02,09,02,42,10.00
2015,02,09,02,43,10.00
2015,02,09,02,44,10.00
2015,02,09,02,45,10.00
2015,02,09,02,46,10.00
2015,02,09,02,47,10.00
2015,02,09,02,48,10.00
2015,02,09,02,49,10.00
2015,02,09,02,50,10.00
2015,02,09,02,51,10.00
2015,02,09,02,52,10.00
2015,02,09,02,53,10.00
2015,02,09,02,54,10.00
2015,02,09,02,55,10.00
2015,02,09,02,56,10.00
2015,02,09,02,57,10.00
2015,02,09,02,58,10.00
2015,02,09,02,59,10.00
2015,02,09,03,00,10.00
2015,02,09,03,01,9.80
2015,02,09,03,02,9.80
2015,02,09,03,03,9.80
2015,02,09,03,04,9.80
2015,02,09,03,05,9.80
2015,02,09,03,06,9.80
2015,02,09,03,07,9.80
2015,02,09,03,08,9.80
2015,02,09,03,09,9.80
2015,02,09,03,10,9.80
2015,02,09,03,11,9.80
2015,02,09,03,12,9.80
2015,02,09,03,13,9.80
2015,02,09,03,14,9.80
2015,02,09,03,15,9.80
2015,02,09,03,16,9.80
2015,02,09,03,17,9.80
2015,02,09,03,18,9.80
2015,02,09,03,19,9.80
2015,02,09,03,20,9.80
2015,02,09,03,21,9.80
2015,02,09,03,22,9.80
2015,02,09,03,23,9.80
2015,02,09,03,24,9.80
2015,02,09,03,25,9.80
2015,02,09,03,26,9.80
2015,02,09,03,27,9.80
2015,02,09,03,28,9.80
2015,02,09,03,29,9.80
2015,02,09,03,30,9.80
2015,02,09,03,31,9.80
2015,02,09,03,32,9.80
2015,02,09,03,33,9.80
2015,02,09,03,34,9.80
2015,02,09,03,35,9.80
2015,02,09,03,36,9.80
2015,02,09,03,37,9.80
2015,02,09,03,38,9.80
2015,02,09,03,39,9.80
2015,02,09,03,40,9.80
2015,02,09,03,41,9.80
2015,02,09,03,42,9.80
2015,02,09,03,43,9.80
2015,02,09,03,44,9.80
2015,02,09,03,45,9.80
2015,02,09,03,46,9.80
2015,02,09,03,47,9.80
2015,02,09,03,48,9.80
2015,02,09,03,49,9.80
2015,02,09,03,50,9.80
2015,02,09,03,51,9.80
2015,02,09,03,52,9.80
2015,02,09,03,53,9.80
2015,02,09,03,54,9.80
2015,02,09,03,55,9.80
2015,02,09,03,56,9.80
2015,02,09,03,57,9.80
2015,02,09,03,58,9.80
2015,02,09,03,59,9.80
2015,02,09,04,00,9.80
2015,02,09,04,01,9.70
2015,02,09,04,02,9.70
2015,02,09,04,03,9.70
2015,02,09,04,04,9.70
2015,02,09,04,05,9.70
2015,02,09,04,06,9.70
2015,02,09,04,07,9.70
2015,02,09,04,08,9.70
2015,02,09,04,09,9.70
2015,02,09,04,10,9.70
2015,02,09,04,11,9.70
2015,02,09,04,12,9.70
2015,02,09,04,13,9.70
2015,02,09,04,14,9.70
2015,02,09,04,15,9.70
2015,02,09,04,16,9.70
2015,02,09,04,17,9.70
2015,02,09,04,18,9.70
2015,02,09,04,19,9.70
2015,02,09,04,20,9.70
2015,02,09,04,21,9.70
2015,02,09,04,22,9.70
2015,02,09,04,23,9.70
2015,02,09,04,24,9.70
2015,02,09,04,25,9.70
2015,02,09,04,26,9.70
2015,02,09,04,27,9.70
2015,02,09,04,28,9.70
2015,02,09,04,29,9.70
2015,02,09,04,30,9.70
2015,02,09,04,31,9.60
2015,02,09,04,32,9.60
2015,02,09,04,33,9.60
2015,02,09,04,34,9.60
2015,02,09,04,35,9.60
2015,02,09,04,36,9.60
2015,02,09,04,37,9.60
2015,02,09,04,38,9.60
2015,02,09,04,39,9.60
2015,02,09,04,40,9.60
2015,02,09,04,41,9.60
2015,02,09,04,42,9.60
2015,02,09,04,43,9.60
2015,02,09,04,44,9.60
2015,02,09,04,45,9.60
2015,02,09,04,46,9.60
2015,02,09,04,47,9.60
2015,02,09,04,48,9.60
2015,02,09,04,49,9.60
2015,02,09,04,50,9.60
2015,02,09,04,51,9.60
2015,02,09,04,52,9.60
2015,02,09,04,53,9.60
2015,02,09,04,54,9.60
2015,02,09,04,55,9.60
2015,02,09,04,56,9.60
2015,02,09,04,57,9.60
2015,02,09,04,58,9.60
2015,02,09,04,59,9.60
2015,02,09,05,00,9.60
2015,02,09,05,01,9.60
2015,02,09,05,02,9.60
2015,02,09,05,03,9.60
2015,02,09,05,04,9.60
2015,02,09,05,05,9.60
2015,02,09,05,06,9.60
2015,02,09,05,07,9.60
2015,02,09,05,08,9.60
2015,02,09,05,09,9.60
2015,02,09,05,10,9.60
2015,02,09,05,11,9.60
2015,02,09,05,12,9.60
2015,02,09,05,13,9.60
2015,02,09,05,14,9.60
2015,02,09,05,15,9.60
2015,02,09,05,16,9.60
2015,02,09,05,17,9.60
2015,02,09,05,18,9.60
2015,02,09,05,19,9.60
2015,02,09,05,20,9.60
2015,02,09,05,21,9.60
2015,02,09,05,22,9.60
2015,02,09,05,23,9.60
2015,02,09,05,24,9.60
2015,02,09,05,25,9.60
2015,02,09,05,26,9.60
2015,02,09,05,27,9.60
2015,02,09,05,28,9.60
2015,02,09,05,29,9.60
2015,02,09,05,30,9.60
2015,02,09,05,31,9.50
2015,02,09,05,32,9.50
2015,02,09,05,33,9.50
2015,02,09,05,34,9.50
2015,02,09,05,35,9.50
2015,02,09,05,36,9.50
2015,02,09,05,37,9.50
2015,02,09,05,38,9.50
2015,02,09,05,39,9.50
2015,02,09,05,40,9.50
2015,02,09,05,41,9.50
2015,02,09,05,42,9.50
2015,02,09,05,43,9.50
2015,02,09,05,44,9.50
2015,02,09,05,45,9.50
2015,02,09,05,46,9.50
2015,02,09,05,47,9.50
2015,02,09,05,48,9.50
2015,02,09,05,49,9.50
2015,02,09,05,50,9.50
2015,02,09,05,51,9.50
2015,02,09,05,52,9.50
2015,02,09,05,53,9.50
2015,02,09,05,54,9.50
2015,02,09,05,55,9.50
2015,02,09,05,56,9.50
2015,02,09,05,57,9.50
2015,02,09,05,58,9.50
2015,02,09,05,59,9.50
2015,02,09,06,00,9.50
2015,02,09,06,01,9.40
2015,02,09,06,02,9.40
2015,02,09,06,03,9.40
2015,02,09,06,04,9.40
2015,02,09,06,05,9.40
2015,02,09,06,06,9.40
2015,02,09,06,07,9.40
2015,02,09,06,08,9.40
2015,02,09,06,09,9.40
2015,02,09,06,10,9.40
2015,02,09,06,11,9.40
2015,02,09,06,12,9.40
2015,02,09,06,13,9.40
2015,02,09,06,14,9.40
2015,02,09,06,15,9.40
2015,02,09,06,16,9.40
2015,02,09,06,17,9.40
2015,02,09,06,18,9.40
2015,02,09,06,19,9.40
2015,02,09,06,20,9.40
2015,02,09,06,21,9.40
2015,02,09,06,22,9.40
2015,02,09,06,23,9.40
2015,02,09,06,24,9.40
2015,02,09,06,25,9.40
2015,02,09,06,26,9.40
2015,02,09,06,27,9.40
2015,02,09,06,28,9.40
2015,02,09,06,29,9.40
2015,02,09,06,30,9.40
2015,02,09,06,31,9.60
2015,02,09,06,32,9.60
2015,02,09,06,33,9.60
2015,02,09,06,34,9.60
2015,02,09,06,35,9.60
2015,02,09,06,36,9.60
2015,02,09,06,37,9.60
2015,02,09,06,38,9.60
2015,02,09,06,39,9.60
2015,02,09,06,40,9.60
2015,02,09,06,41,9.60
2015,02,09,06,42,9.60
2015,02,09,06,43,9.60
2015,02,09,06,44,9.60
2015,02,09,06,45,9.60
2015,02,09,06,46,9.60
2015,02,09,06,47,9.60
2015,02,09,06,48,9.60
2015,02,09,06,49,9.60
2015,02,09,06,50,9.60
2015,02,09,06,51,9.60
2015,02,09,06,52,9.60
2015,02,09,06,53,9.60
2015,02,09,06,54,9.60
2015,02,09,06,55,9.60
2015,02,09,06,56,9.60
2015,02,09,06,57,9.60
2015,02,09,06,58,9.60
2015,02,09,06,59,9.60
2015,02,09,07,00,9.60
2015,02,09,07,01,9.60
2015,02,09,07,02,9.60
2015,02,09,07,03,9.60
2015,02,09,07,04,9.60
2015,02,09,07,05,9.60
2015,02,09,07,06,9.60
2015,02,09,07,07,9.60
2015,02,09,07,08,9.60
2015,02,09,07,09,9.60
2015,02,09,07,10,9.60
2015,02,09,07,11,9.60
2015,02,09,07,12,9.60
2015,02,09,07,13,9.60
2015,02,09,07,14,9.60
2015,02,09,07,15,9.60
2015,02,09,07,16,9.60
2015,02,09,07,17,9.60
2015,02,09,07,18,9.60
2015,02,09,07,19,9.60
2015,02,09,07,20,9.60
2015,02,09,07,21,9.60
2015,02,09,07,22,9.60
2015,02,09,07,23,9.60
2015,02,09,07,24,9.60
2015,02,09,07,25,9.60
2015,02,09,07,26,9.60
2015,02,09,07,27,9.60
2015,02,09,07,28,9.60
2015,02,09,07,29,9.60
2015,02,09,07,30,9.60
2015,02,09,07,31,9.50
2015,02,09,07,32,9.50
2015,02,09,07,33,9.50
2015,02,09,07,34,9.50
2015,02,09,07,35,9.50
2015,02,09,07,36,9.50
2015,02,09,07,37,9.50
2015,02,09,07,38,9.50
2015,02,09,07,39,9.50
2015,02,09,07,40,9.50
2015,02,09,07,41,9.50
2015,02,09,07,42,9.50
2015,02,09,07,43,9.50
2015,02,09,07,44,9.50
2015,02,09,07,45,9.50
2015,02,09,07,46,9.50
2015,02,09,07,47,9.50
2015,02,09,07,48,9.50
2015,02,09,07,49,9.50
2015,02,09,07,50,9.50
2015,02,09,07,51,9.50
2015,02,09,07,52,9.50
2015,02,09,07,53,9.50
2015,02,09,07,54,9.50
2015,02,09,07,55,9.50
2015,02,09,07,56,9.50
2015,02,09,07,57,9.50
2015,02,09,07,58,9.50
2015,02,09,07,59,9.50
2015,02,09,08,00,9.50
2015,02,09,08,01,9.60
2015,02,09,08,02,9.60
2015,02,09,08,03,9.60
2015,02,09,08,04,9.60
2015,02,09,08,05,9.60
2015,02,09,08,06,9.60
2015,02,09,08,07,9.60
2015,02,09,08,08,9.60
2015,02,09,08,09,9.60
2015,02,09,08,10,9.60
2015,02,09,08,11,9.60
2015,02,09,08,12,9.60
2015,02,09,08,13,9.60
2015,02,09,08,14,9.60
2015,02,09,08,15,9.60
2015,02,09,08,16,9.60
2015,02,09,08,17,9.60
2015,02,09,08,18,9.60
2015,02,09,08,19,9.60
2015,02,09,08,20,9.60
2015,02,09,08,21,9.60
2015,02,09,08,22,9.60
2015,02,09,08,23,9.60
2015,02,09,08,24,9.60
2015,02,09,08,25,9.60
2015,02,09,08,26,9.60
2015,02,09,08,27,9.60
2015,02,09,08,28,9.60
2015,02,09,08,29,9.60
2015,02,09,08,30,9.60
2015,02,09,08,31,9.60
2015,02,09,08,32,9.60
2015,02,09,08,33,9.60
2015,02,09,08,34,9.60
2015,02,09,08,35,9.60
2015,02,09,08,36,9.60
2015,02,09,08,37,9.60
2015,02,09,08,38,9.60
2015,02,09,08,39,9.60
2015,02,09,08,40,9.60
2015,02,09,08,41,9.60
2015,02,09,08,42,9.60
2015,02,09,08,43,9.60
2015,02,09,08,44,9.60
2015,02,09,08,45,9.60
2015,02,09,08,46,9.60
2015,02,09,08,47,9.60
2015,02,09,08,48,9.60
2015,02,09,08,49,9.60
2015,02,09,08,50,9.60
2015,02,09,08,51,9.60
2015,02,09,08,52,9.60
2015,02,09,08,53,9.60
2015,02,09,08,54,9.60
2015,02,09,08,55,9.60
2015,02,09,08,56,9.60
2015,02,09,08,57,9.60
2015,02,09,08,58,9.60
2015,02,09,08,59,9.60
2015,02,09,09,00,9.60
2015,02,09,09,01,9.50
2015,02,09,09,02,9.50
2015,02,09,09,03,9.50
2015,02,09,09,04,9.50
2015,02,09,09,05,9.50
2015,02,09,09,06,9.50
2015,02,09,09,07,9.50
2015,02,09,09,08,9.50
2015,02,09,09,09,9.50
2015,02,09,09,10,9.50
2015,02,09,09,11,9.50
2015,02,09,09,12,9.50
2015,02,09,09,13,9.50
2015,02,09,09,14,9.50
2015,02,09,09,15,9.50
2015,02,09,09,16,9.50
2015,02,09,09,17,9.50
2015,02,09,09,18,9.50
2015,02,09,09,19,9.50
2015,02,09,09,20,9.50
2015,02,09,09,21,9.50
2015,02,09,09,22,9.50
2015,02,09,09,23,9.50
2015,02,09,09,24,9.50
2015,02,09,09,25,9.50
2015,02,09,09,26,9.50
2015,02,09,09,27,9.50
2015,02,09,09,28,9.50
2015,02,09,09,29,9.50
2015,02,09,09,30,9.50
2015,02,09,09,31,9.60
2015,02,09,09,32,9.60
2015,02,09,09,33,9.60
2015,02,09,09,34,9.60
2015,02,09,09,35,9.60
2015,02,09,09,36,9.60
2015,02,09,09,37,9.60
2015,02,09,09,38,9.60
2015,02,09,09,39,9.60
2015,02,09,09,40,9.60
2015,02,09,09,41,9.60
2015,02,09,09,42,9.60
2015,02,09,09,43,9.60
2015,02,09,09,44,9.60
2015,02,09,09,45,9.60
2015,02,09,09,46,9.60
2015,02,09,09,47,9.60
2015,02,09,09,48,9.60
2015,02,09,09,49,9.60
2015,02,09,09,50,9.60
2015,02,09,09,51,9.60
2015,02,09,09,52,9.60
2015,02,09,09,53,9.60
2015,02,09,09,54,9.60
2015,02,09,09,55,9.60
2015,02,09,09,56,9.60
2015,02,09,09,57,9.60
2015,02,09,09,58,9.60
2015,02,09,09,59,9.60
2015,02,09,10,00,9.60
2015,02,09,10,01,9.80
2015,02,09,10,02,9.80
2015,02,09,10,03,9.80
2015,02,09,10,04,9.80
2015,02,09,10,05,9.80
2015,02,09,10,06,9.80
2015,02,09,10,07,9.80
2015,02,09,10,08,9.80
2015,02,09,10,09,9.80
2015,02,09,10,10,9.80
2015,02,09,10,11,9.80
2015,02,09,10,12,9.80
2015,02,09,10,13,9.80
2015,02,09,10,14,9.80
2015,02,09,10,15,9.80
2015,02,09,10,16,9.80
2015,02,09,10,17,9.80
2015,02,09,10,18,9.80
2015,02,09,10,19,9.80
2015,02,09,10,20,9.80
2015,02,09,10,21,9.80
2015,02,09,10,22,9.80
2015,02,09,10,23,9.80
2015,02,09,10,24,9.80
2015,02,09,10,25,9.80
2015,02,09,10,26,9.80
2015,02,09,10,27,9.80
2015,02,09,10,28,9.80
2015,02,09,10,29,9.80
2015,02,09,10,30,9.80
2015,02,09,10,31,9.80
2015,02,09,10,32,9.80
2015,02,09,10,33,9.80
2015,02,09,10,34,9.80
2015,02,09,10,35,9.80
2015,02,09,10,36,9.80
2015,02,09,10,37,9.80
2015,02,09,10,38,9.80
2015,02,09,10,39,9.80
2015,02,09,10,40,9.80
2015,02,09,10,41,9.80
2015,02,09,10,42,9.80
2015,02,09,10,43,9.80
2015,02,09,10,44,9.80
2015,02,09,10,45,9.80
2015,02,09,10,46,9.80
2015,02,09,10,47,9.80
2015,02,09,10,48,9.80
2015,02,09,10,49,9.80
2015,02,09,10,50,9.80
2015,02,09,10,51,9.80
2015,02,09,10,52,9.80
2015,02,09,10,53,9.80
2015,02,09,10,54,9.80
2015,02,09,10,55,9.80
2015,02,09,10,56,9.80
2015,02,09,10,57,9.80
2015,02,09,10,58,9.80
2015,02,09,10,59,9.80
2015,02,09,11,00,9.80
2015,02,09,11,01,9.90
2015,02,09,11,02,9.90
2015,02,09,11,03,9.90
2015,02,09,11,04,9.90
2015,02,09,11,05,9.90
2015,02,09,11,06,9.90
2015,02,09,11,07,9.90
2015,02,09,11,08,9.90
2015,02,09,11,09,9.90
2015,02,09,11,10,9.90
2015,02,09,11,11,9.90
2015,02,09,11,12,9.90
2015,02,09,11,13,9.90
2015,02,09,11,14,9.90
2015,02,09,11,15,9.90
2015,02,09,11,16,9.90
2015,02,09,11,17,9.90
2015,02,09,11,18,9.90
2015,02,09,11,19,9.90
2015,02,09,11,20,9.90
2015,02,09,11,21,9.90
2015,02,09,11,22,9.90
2015,02,09,11,23,9.90
2015,02,09,11,24,9.90
2015,02,09,11,25,9.90
2015,02,09,11,26,9.90
2015,02,09,11,27,9.90
2015,02,09,11,28,9.90
2015,02,09,11,29,9.90
2015,02,09,11,30,9.90
2015,02,09,11,31,10.00
2015,02,09,11,32,10.00
2015,02,09,11,33,10.00
2015,02,09,11,34,10.00
2015,02,09,11,35,10.00
2015,02,09,11,36,10.00
2015,02,09,11,37,10.00
2015,02,09,11,38,10.00
2015,02,09,11,39,10.00
2015,02,09,11,40,10.00
2015,02,09,11,41,10.00
2015,02,09,11,42,10.00
2015,02,09,11,43,10.00
2015,02,09,11,44,10.00
2015,02,09,11,45,10.00
2015,02,09,11,46,10.00
2015,02,09,11,47,10.00
2015,02,09,11,48,10.00
2015,02,09,11,49,10.00
2015,02,09,11,50,10.00
2015,02,09,11,51,10.00
2015,02,09,11,52,10.00
2015,02,09,11,53,10.00
2015,02,09,11,54,10.00
2015,02,09,11,55,10.00
2015,02,09,11,56,10.00
2015,02,09,11,57,10.00
2015,02,09,11,58,10.00
2015,02,09,11,59,10.00
2015,02,09,12,00,10.00
2015,02,09,12,01,9.90
2015,02,09,12,02,9.90
2015,02,09,12,03,9.90
2015,02,09,12,04,9.90
2015,02,09,12,05,9.90
2015,02,09,12,06,9.90
2015,02,09,12,07,9.90
2015,02,09,12,08,9.90
2015,02,09,12,09,9.90
2015,02,09,12,10,9.90
2015,02,09,12,11,9.90
2015,02,09,12,12,9.90
2015,02,09,12,13,9.90
2015,02,09,12,14,9.90
2015,02,09,12,15,9.90
2015,02,09,12,16,9.90
2015,02,09,12,17,9.90
2015,02,09,12,18,9.90
2015,02,09,12,19,9.90
2015,02,09,12,20,9.90
2015,02,09,12,21,9.90
2015,02,09,12,22,9.90
2015,02,09,12,23,9.90
2015,02,09,12,24,9.90
2015,02,09,12,25,9.90
2015,02,09,12,26,9.90
2015,02,09,12,27,9.90
2015,02,09,12,28,9.90
2015,02,09,12,29,9.90
2015,02,09,12,30,9.90
2015,02,09,12,31,9.90
2015,02,09,12,32,9.90
2015,02,09,12,33,9.90
2015,02,09,12,34,9.90
2015,02,09,12,35,9.90
2015,02,09,12,36,9.90
2015,02,09,12,37,9.90
2015,02,09,12,38,9.90
2015,02,09,12,39,9.90
2015,02,09,12,40,9.90
2015,02,09,12,41,9.90
2015,02,09,12,42,9.90
2015,02,09,12,43,9.90
2015,02,09,12,44,9.90
2015,02,09,12,45,9.90
2015,02,09,12,46,9.90
2015,02,09,12,47,9.90
2015,02,09,12,48,9.90
2015,02,09,12,49,9.90
2015,02,09,12,50,9.90
2015,02,09,12,51,9.90
2015,02,09,12,52,9.90
2015,02,09,12,53,9.90
2015,02,09,12,54,9.90
2015,02,09,12,55,9.90
2015,02,09,12,56,9.90
2015,02,09,12,57,9.90
2015,02,09,12,58,9.90
2015,02,09,12,59,9.90
2015,02,09,13,00,9.90
2015,02,09,13,01,10.10
2015,02,09,13,02,10.10
2015,02,09,13,03,10.10
2015,02,09,13,04,10.10
2015,02,09,13,05,10.10
2015,02,09,13,06,10.10
2015,02,09,13,07,10.10
2015,02,09,13,08,10.10
2015,02,09,13,09,10.10
2015,02,09,13,10,10.10
2015,02,09,13,11,10.10
2015,02,09,13,12,10.10
2015,02,09,13,13,10.10
2015,02,09,13,14,10.10
2015,02,09,13,15,10.10
2015,02,09,13,16,10.10
2015,02,09,13,17,10.10
2015,02,09,13,18,10.10
2015,02,09,13,19,10.10
2015,02,09,13,20,10.10
2015,02,09,13,21,10.10
2015,02,09,13,22,10.10
2015,02,09,13,23,10.10
2015,02,09,13,24,10.10
2015,02,09,13,25,10.10
2015,02,09,13,26,10.10
2015,02,09,13,27,10.10
2015,02,09,13,28,10.10
2015,02,09,13,29,10.10
2015,02,09,13,30,10.10
2015,02,09,13,31,10.30
2015,02,09,13,32,10.30
2015,02,09,13,33,10.30
2015,02,09,13,34,10.30
2015,02,09,13,35,10.30
2015,02,09,13,36,10.30
2015,02,09,13,37,10.30
2015,02,09,13,38,10.30
2015,02,09,13,39,10.30
2015,02,09,13,40,10.30
2015,02,09,13,41,10.30
2015,02,09,13,42,10.30
2015,02,09,13,43,10.30
2015,02,09,13,44,10.30
2015,02,09,13,45,10.30
2015,02,09,13,46,10.30
2015,02,09,13,47,10.30
2015,02,09,13,48,10.30
2015,02,09,13,49,10.30
2015,02,09,13,50,10.30
2015,02,09,13,51,10.30
2015,02,09,13,52,10.30
2015,02,09,13,53,10.30
2015,02,09,13,54,10.30
2015,02,09,13,55,10.30
2015,02,09,13,56,10.30
2015,02,09,13,57,10.30
2015,02,09,13,58,10.30
2015,02,09,13,59,10.30
2015,02,09,14,00,10.30
2015,02,09,14,01,10.20
2015,02,09,14,02,10.20
2015,02,09,14,03,10.20
2015,02,09,14,04,10.20
2015,02,09,14,05,10.20
2015,02,09,14,06,10.20
2015,02,09,14,07,10.20
2015,02,09,14,08,10.20
2015,02,09,14,09,10.20
2015,02,09,14,10,10.20
2015,02,09,14,11,10.20
2015,02,09,14,12,10.20
2015,02,09,14,13,10.20
2015,02,09,14,14,10.20
2015,02,09,14,15,10.20
2015,02,09,14,16,10.20
2015,02,09,14,17,10.20
2015,02,09,14,18,10.20
2015,02,09,14,19,10.20
2015,02,09,14,20,10.20
2015,02,09,14,21,10.20
2015,02,09,14,22,10.20
2015,02,09,14,23,10.20
2015,02,09,14,24,10.20
2015,02,09,14,25,10.20
2015,02,09,14,26,10.20
2015,02,09,14,27,10.20
2015,02,09,14,28,10.20
2015,02,09,14,29,10.20
2015,02,09,14,30,10.20
2015,02,09,14,31,10.10
2015,02,09,14,32,10.10
2015,02,09,14,33,10.10
2015,02,09,14,34,10.10
2015,02,09,14,35,10.10
2015,02,09,14,36,10.10
2015,02,09,14,37,10.10
2015,02,09,14,38,10.10
2015,02,09,14,39,10.10
2015,02,09,14,40,10.10
2015,02,09,14,41,10.10
2015,02,09,14,42,10.10
2015,02,09,14,43,10.10
2015,02,09,14,44,10.10
2015,02,09,14,45,10.10
2015,02,09,14,46,10.10
2015,02,09,14,47,10.10
2015,02,09,14,48,10.10
2015,02,09,14,49,10.10
2015,02,09,14,50,10.10
2015,02,09,14,51,10.10
2015,02,09,14,52,10.10
2015,02,09,14,53,10.10
2015,02,09,14,54,10.10
2015,02,09,14,55,10.10
2015,02,09,14,56,10.10
2015,02,09,14,57,10.10
2015,02,09,14,58,10.10
2015,02,09,14,59,10.10
2015,02,09,15,00,10.10
2015,02,09,15,01,10.20
2015,02,09,15,02,10.20
2015,02,09,15,03,10.20
2015,02,09,15,04,10.20
2015,02,09,15,05,10.20
2015,02,09,15,06,10.20
2015,02,09,15,07,10.20
2015,02,09,15,08,10.20
2015,02,09,15,09,10.20
2015,02,09,15,10,10.20
2015,02,09,15,11,10.20
2015,02,09,15,12,10.20
2015,02,09,15,13,10.20
2015,02,09,15,14,10.20
2015,02,09,15,15,10.20
2015,02,09,15,16,10.20
2015,02,09,15,17,10.20
2015,02,09,15,18,10.20
2015,02,09,15,19,10.20
2015,02,09,15,20,10.20
2015,02,09,15,21,10.20
2015,02,09,15,22,10.20
2015,02,09,15,23,10.20
2015,02,09,15,24,10.20
2015,02,09,15,25,10.20
2015,02,09,15,26,10.20
2015,02,09,15,27,10.20
2015,02,09,15,28,10.20
2015,02,09,15,29,10.20
2015,02,09,15,30,10.20
2015,02,09,15,31,10.30
2015,02,09,15,32,10.30
2015,02,09,15,33,10.30
2015,02,09,15,34,10.30
2015,02,09,15,35,10.30
2015,02,09,15,36,10.30
2015,02,09,15,37,10.30
2015,02,09,15,38,10.30
2015,02,09,15,39,10.30
2015,02,09,15,40,10.30
2015,02,09,15,41,10.30
2015,02,09,15,42,10.30
2015,02,09,15,43,10.30
2015,02,09,15,44,10.30
2015,02,09,15,45,10.30
2015,02,09,15,46,10.30
2015,02,09,15,47,10.30
2015,02,09,15,48,10.30
2015,02,09,15,49,10.30
2015,02,09,15,50,10.30
2015,02,09,15,51,10.30
2015,02,09,15,52,10.30
2015,02,09,15,53,10.30
2015,02,09,15,54,10.30
2015,02,09,15,55,10.30
2015,02,09,15,56,10.30
2015,02,09,15,57,10.30
2015,02,09,15,58,10.30
2015,02,09,15,59,10.30
2015,02,09,16,00,10.30
2015,02,09,16,01,10.20
2015,02,09,16,02,10.20
2015,02,09,16,03,10.20
2015,02,09,16,04,10.20
2015,02,09,16,05,10.20
2015,02,09,16,06,10.20
2015,02,09,16,07,10.20
2015,02,09,16,08,10.20
2015,02,09,16,09,10.20
2015,02,09,16,10,10.20
2015,02,09,16,11,10.20
2015,02,09,16,12,10.20
2015,02,09,16,13,10.20
2015,02,09,16,14,10.20
2015,02,09,16,15,10.20
2015,02,09,16,16,10.20
2015,02,09,16,17,10.20
2015,02,09,16,18,10.20
2015,02,09,16,19,10.20
2015,02,09,16,20,10.20
2015,02,09,16,21,10.20
2015,02,09,16,22,10.20
2015,02,09,16,23,10.20
2015,02,09,16,24,10.20
2015,02,09,16,25,10.20
2015,02,09,16,26,10.20
2015,02,09,16,27,10.20
2015,02,09,16,28,10.20
2015,02,09,16,29,10.20
2015,02,09,16,30,10.20
2015,02,09,16,31,10.10
2015,02,09,16,32,10.10
2015,02,09,16,33,10.10
2015,02,09,16,34,10.10
2015,02,09,16,35,10.10
2015,02,09,16,36,10.10
2015,02,09,16,37,10.10
2015,02,09,16,38,10.10
2015,02,09,16,39,10.10
2015,02,09,16,40,10.10
2015,02,09,16,41,10.10
2015,02,09,16,42,10.10
2015,02,09,16,43,10.10
2015,02,09,16,44,10.10
2015,02,09,16,45,10.10
2015,02,09,16,46,10.10
2015,02,09,16,47,10.10
2015,02,09,16,48,10.10
2015,02,09,16,49,10.10
2015,02,09,16,50,10.10
2015,02,09,16,51,10.10
2015,02,09,16,52,10.10
2015,02,09,16,53,10.10
2015,02,09,16,54,10.10
2015,02,09,16,55,10.10
2015,02,09,16,56,10.10
2015,02,09,16,57,10.10
2015,02,09,16,58,10.10
2015,02,09,16,59,10.10
2015,02,09,17,00,10.10
2015,02,09,17,01,10.10
2015,02,09,17,02,10.10
2015,02,09,17,03,10.10
2015,02,09,17,04,10.10
2015,02,09,17,05,10.10
2015,02,09,17,06,10.10
2015,02,09,17,07,10.10
2015,02,09,17,08,10.10
2015,02,09,17,09,10.10
2015,02,09,17,10,10.10
2015,02,09,17,11,10.10
2015,02,09,17,12,10.10
2015,02,09,17,13,10.10
2015,02,09,17,14,10.10
2015,02,09,17,15,10.10
2015,02,09,17,16,10.10
2015,02,09,17,17,10.10
2015,02,09,17,18,10.10
2015,02,09,17,19,10.10
2015,02,09,17,20,10.10
2015,02,09,17,21,10.10
2015,02,09,17,22,10.10
2015,02,09,17,23,10.10
2015,02,09,17,24,10.10
2015,02,09,17,25,10.10
2015,02,09,17,26,10.10
2015,02,09,17,27,10.10
2015,02,09,17,28,10.10
2015,02,09,17,29,10.10
2015,02,09,17,30,10.10
2015,02,09,17,31,10.10
2015,02,09,17,32,10.10
2015,02,09,17,33,10.10
2015,02,09,17,34,10.10
2015,02,09,17,35,10.10
2015,02,09,17,36,10.10
2015,02,09,17,37,10.10
2015,02,09,17,38,10.10
2015,02,09,17,39,10.10
2015,02,09,17,40,10.10
2015,02,09,17,41,10.10
2015,02,09,17,42,10.10
2015,02,09,17,43,10.10
2015,02,09,17,44,10.10
2015,02,09,17,45,10.10
2015,02,09,17,46,10.10
2015,02,09,17,47,10.10
2015,02,09,17,48,10.10
2015,02,09,17,49,10.10
2015,02,09,17,50,10.10
2015,02,09,17,51,10.10
2015,02,09,17,52,10.10
2015,02,09,17,53,10.10
2015,02,09,17,54,10.10
2015,02,09,17,55,10.10
2015,02,09,17,56,10.10
2015,02,09,17,57,10.10
2015,02,09,17,58,10.10
2015,02,09,17,59,10.10
2015,02,09,18,00,10.10
2015,02,09,18,01,10.00
2015,02,09,18,02,10.00
2015,02,09,18,03,10.00
2015,02,09,18,04,10.00
2015,02,09,18,05,10.00
2015,02,09,18,06,10.00
2015,02,09,18,07,10.00
2015,02,09,18,08,10.00
2015,02,09,18,09,10.00
2015,02,09,18,10,10.00
2015,02,09,18,11,10.00
2015,02,09,18,12,10.00
2015,02,09,18,13,10.00
2015,02,09,18,14,10.00
2015,02,09,18,15,10.00
2015,02,09,18,16,10.00
2015,02,09,18,17,10.00
2015,02,09,18,18,10.00
2015,02,09,18,19,10.00
2015,02,09,18,20,10.00
2015,02,09,18,21,10.00
2015,02,09,18,22,10.00
2015,02,09,18,23,10.00
2015,02,09,18,24,10.00
2015,02,09,18,25,10.00
2015,02,09,18,26,10.00
2015,02,09,18,27,10.00
2015,02,09,18,28,10.00
2015,02,09,18,29,10.00
2015,02,09,18,30,10.00
2015,02,09,18,31,10.00
2015,02,09,18,32,10.00
2015,02,09,18,33,10.00
2015,02,09,18,34,10.00
2015,02,09,18,35,10.00
2015,02,09,18,36,10.00
2015,02,09,18,37,10.00
2015,02,09,18,38,10.00
2015,02,09,18,39,10.00
2015,02,09,18,40,10.00
2015,02,09,18,41,10.00
2015,02,09,18,42,10.00
2015,02,09,18,43,10.00
2015,02,09,18,44,10.00
2015,02,09,18,45,10.00
2015,02,09,18,46,10.00
2015,02,09,18,47,10.00
2015,02,09,18,48,10.00
2015,02,09,18,49,10.00
2015,02,09,18,50,10.00
2015,02,09,18,51,10.00
2015,02,09,18,52,10.00
2015,02,09,18,53,10.00
2015,02,09,18,54,10.00
2015,02,09,18,55,10.00
2015,02,09,18,56,10.00
2015,02,09,18,57,10.00
2015,02,09,18,58,10.00
2015,02,09,18,59,10.00
2015,02,09,19,00,10.00
2015,02,09,19,01,10.00
2015,02,09,19,02,10.00
2015,02,09,19,03,10.00
2015,02,09,19,04,10.00
2015,02,09,19,05,10.00
2015,02,09,19,06,10.00
2015,02,09,19,07,10.00
2015,02,09,19,08,10.00
2015,02,09,19,09,10.00
2015,02,09,19,10,10.00
2015,02,09,19,11,10.00
2015,02,09,19,12,10.00
2015,02,09,19,13,10.00
2015,02,09,19,14,10.00
2015,02,09,19,15,10.00
2015,02,09,19,16,10.00